Time,TemperatureF,DewpointF,PressureIn,WindDirection,WindDirectionDegrees,WindSpeedMPH,WindSpeedGustMPH,Humidity,HourlyPrecipIn,Conditions,Clouds,dailyrainin,SoftwareType,DateUTC
2013-04-25 00:03:00,41.8,35.1,30.25,WSW,240,0.0,0.0,77,0.00,,CLR,0.00,VWS V14.01,2013-04-25 05:03:00,
2013-04-25 00:08:00,41.7,35.0,30.25,WSW,240,0.0,0.0,77,0.00,,CLR,0.00,VWS V14.01,2013-04-25 05:08:00,
2013-04-25 00:13:00,41.5,34.8,30.25,WSW,240,0.0,1.0,77,0.00,,CLR,0.00,VWS V14.01,2013-04-25 05:13:00,
2013-04-25 00:18:00,41.6,34.9,30.25,WSW,240,0.0,1.0,77,0.00,,CLR,0.00,VWS V14.01,2013-04-25 05:18:00,
2013-04-25 00:23:00,41.6,34.9,30.25,WSW,240,0.0,2.0,77,0.00,,CLR,0.00,VWS V14.01,2013-04-25 05:23:00,
2013-04-25 00:28:00,41.7,35.0,30.25,WSW,240,0.0,2.0,77,0.00,,CLR,0.00,VWS V14.01,2013-04-25 05:28:00,
2013-04-25 00:33:00,41.8,35.1,30.25,WSW,240,0.0,0.0,77,0.00,,CLR,0.00,VWS V14.01,2013-04-25 05:33:00,
2013-04-25 00:38:00,41.8,35.1,30.25,WSW,240,0.0,1.0,77,0.00,,CLR,0.00,VWS V14.01,2013-04-25 05:38:00,
2013-04-25 00:43:00,41.8,35.1,30.25,WSW,240,0.0,0.0,77,0.00,,CLR,0.00,VWS V14.01,2013-04-25 05:43:00,
2013-04-25 00:48:00,41.8,35.1,30.25,SW,216,0.0,4.0,77,0.00,,CLR,0.00,VWS V14.01,2013-04-25 05:48:00,
2013-04-25 00:53:00,41.8,35.1,30.26,SW,216,0.0,0.0,77,0.00,,CLR,0.00,VWS V14.01,2013-04-25 05:53:00,
2013-04-25 00:58:00,41.7,35.0,30.25,SW,216,0.0,0.0,77,0.00,,CLR,0.00,VWS V14.01,2013-04-25 05:58:00,
2013-04-25 01:03:00,41.8,35.1,30.25,SW,216,0.0,1.0,77,0.00,,CLR,0.00,VWS V14.01,2013-04-25 06:03:00,
2013-04-25 01:08:00,41.7,35.0,30.26,SW,216,0.0,1.0,77,0.00,,CLR,0.00,VWS V14.01,2013-04-25 06:08:00,
2013-04-25 01:13:00,41.6,34.9,30.25,SW,216,0.0,1.0,77,0.00,,CLR,0.00,VWS V14.01,2013-04-25 06:13:00,
2013-04-25 01:18:00,41.6,34.9,30.25,SW,216,0.0,1.0,77,0.00,,CLR,0.00,VWS V14.01,2013-04-25 06:18:00,
2013-04-25 01:23:00,41.5,34.8,30.25,SW,216,0.0,0.0,77,0.00,,CLR,0.00,VWS V14.01,2013-04-25 06:23:00,
2013-04-25 01:28:00,41.4,34.7,30.25,SW,216,0.0,1.0,77,0.00,,CLR,0.00,VWS V14.01,2013-04-25 06:28:00,
2013-04-25 01:33:00,41.4,34.7,30.25,SW,216,0.0,1.0,77,0.00,,CLR,0.00,VWS V14.01,2013-04-25 06:33:00,
2013-04-25 01:38:00,41.4,34.7,30.25,SW,216,0.0,2.0,77,0.00,,CLR,0.00,VWS V14.01,2013-04-25 06:38:00,
2013-04-25 01:43:00,41.4,34.7,30.25,SW,216,0.0,0.0,77,0.00,,CLR,0.00,VWS V14.01,2013-04-25 06:43:00,
2013-04-25 01:48:00,41.3,34.7,30.25,SW,216,0.0,1.0,77,0.00,,CLR,0.00,VWS V14.01,2013-04-25 06:48:00,
2013-04-25 01:53:00,41.3,34.7,30.25,SW,216,0.0,0.0,77,0.00,,CLR,0.00,VWS V14.01,2013-04-25 06:53:00,
2013-04-25 01:58:00,41.2,34.5,30.25,SW,216,0.0,1.0,77,0.00,,CLR,0.00,VWS V14.01,2013-04-25 06:58:00,
2013-04-25 02:03:00,41.1,34.5,30.24,SW,216,0.0,0.0,77,0.00,,CLR,0.00,VWS V14.01,2013-04-25 07:03:00,
2013-04-25 02:08:00,41.1,34.5,30.24,SW,216,0.0,1.0,77,0.00,,CLR,0.00,VWS V14.01,2013-04-25 07:08:00,
2013-04-25 02:13:00,41.0,34.7,30.24,SW,216,0.0,1.0,78,0.00,,CLR,0.00,VWS V14.01,2013-04-25 07:13:00,
2013-04-25 02:18:00,40.9,34.6,30.24,SW,216,0.0,4.0,78,0.00,,CLR,0.00,VWS V14.01,2013-04-25 07:18:00,
2013-04-25 02:23:00,40.8,34.5,30.25,SW,216,0.0,0.0,78,0.00,,CLR,0.00,VWS V14.01,2013-04-25 07:23:00,
2013-04-25 02:28:00,40.7,34.4,30.24,SW,216,0.0,1.0,78,0.00,,CLR,0.00,VWS V14.01,2013-04-25 07:28:00,
2013-04-25 02:33:00,40.7,34.4,30.24,SW,215,0.0,2.0,78,0.00,,CLR,0.00,VWS V14.01,2013-04-25 07:33:00,
2013-04-25 02:38:00,40.6,34.3,30.25,SW,215,0.0,2.0,78,0.00,,CLR,0.00,VWS V14.01,2013-04-25 07:38:00,
2013-04-25 02:43:00,40.6,34.3,30.25,SW,215,0.0,1.0,78,0.00,,CLR,0.00,VWS V14.01,2013-04-25 07:43:00,
2013-04-25 02:48:00,40.7,34.7,30.25,SW,215,0.0,1.0,79,0.00,,CLR,0.00,VWS V14.01,2013-04-25 07:48:00,
2013-04-25 02:53:00,40.8,34.8,30.25,SW,221,0.0,4.0,79,0.00,,CLR,0.00,VWS V14.01,2013-04-25 07:53:00,
2013-04-25 02:58:00,40.9,34.9,30.25,SW,221,0.0,4.0,79,0.00,,CLR,0.00,VWS V14.01,2013-04-25 07:58:00,
2013-04-25 03:03:00,40.9,34.6,30.25,SW,221,0.0,0.0,78,0.00,,CLR,0.00,VWS V14.01,2013-04-25 08:03:00,
2013-04-25 03:08:00,40.8,34.5,30.25,SW,221,1.0,2.0,78,0.00,,CLR,0.00,VWS V14.01,2013-04-25 08:08:00,
2013-04-25 03:13:00,40.7,34.7,30.25,SSW,205,5.0,5.0,79,0.00,,CLR,0.00,VWS V14.01,2013-04-25 08:13:00,
2013-04-25 03:18:00,40.8,34.8,30.25,SSW,202,0.0,5.0,79,0.00,,CLR,0.00,VWS V14.01,2013-04-25 08:18:00,
2013-04-25 03:23:00,40.8,34.8,30.26,SW,217,0.0,1.0,79,0.00,,CLR,0.00,VWS V14.01,2013-04-25 08:23:00,
2013-04-25 03:28:00,40.7,34.7,30.26,WSW,241,0.0,5.0,79,0.00,,CLR,0.00,VWS V14.01,2013-04-25 08:28:00,
2013-04-25 03:33:00,40.7,34.7,30.25,SW,236,0.0,2.0,79,0.00,,CLR,0.00,VWS V14.01,2013-04-25 08:33:00,
2013-04-25 03:38:00,40.6,34.9,30.26,SW,236,0.0,3.0,80,0.00,,CLR,0.00,VWS V14.01,2013-04-25 08:38:00,
2013-04-25 03:43:00,40.6,34.9,30.26,WSW,237,0.0,3.0,80,0.00,,CLR,0.00,VWS V14.01,2013-04-25 08:43:00,
2013-04-25 03:48:00,40.5,34.8,30.26,WSW,237,3.0,3.0,80,0.00,,CLR,0.00,VWS V14.01,2013-04-25 08:48:00,
2013-04-25 03:53:00,40.4,35.0,30.26,SW,225,0.0,5.0,81,0.00,,CLR,0.00,VWS V14.01,2013-04-25 08:53:00,
2013-04-25 03:58:00,40.4,35.0,30.26,SW,225,0.0,5.0,81,0.00,,CLR,0.00,VWS V14.01,2013-04-25 08:58:00,
2013-04-25 04:03:00,40.2,34.8,30.26,SW,225,2.0,2.0,81,0.00,,CLR,0.00,VWS V14.01,2013-04-25 09:03:00,
2013-04-25 04:08:00,40.2,34.8,30.26,SW,223,0.0,4.0,81,0.00,,CLR,0.00,VWS V14.01,2013-04-25 09:08:00,
2013-04-25 04:13:00,40.1,34.8,30.26,SW,223,0.0,0.0,81,0.00,,CLR,0.00,VWS V14.01,2013-04-25 09:13:00,
2013-04-25 04:18:00,39.9,34.5,30.26,SW,223,0.0,0.0,81,0.00,,CLR,0.00,VWS V14.01,2013-04-25 09:18:00,
2013-04-25 04:23:00,39.7,34.7,30.26,SW,223,0.0,1.0,82,0.00,,CLR,0.00,VWS V14.01,2013-04-25 09:23:00,
2013-04-25 04:28:00,39.6,34.6,30.25,South,189,0.0,3.0,82,0.00,,CLR,0.00,VWS V14.01,2013-04-25 09:28:00,
2013-04-25 04:33:00,39.6,34.6,30.25,South,188,3.0,5.0,82,0.00,,CLR,0.00,VWS V14.01,2013-04-25 09:33:00,
2013-04-25 04:38:00,39.6,34.6,30.25,South,185,0.0,5.0,82,0.00,,CLR,0.00,VWS V14.01,2013-04-25 09:38:00,
2013-04-25 04:43:00,39.6,34.6,30.25,South,185,0.0,1.0,82,0.00,,CLR,0.00,VWS V14.01,2013-04-25 09:43:00,
2013-04-25 04:48:00,39.6,34.6,30.25,South,185,0.0,2.0,82,0.00,,CLR,0.00,VWS V14.01,2013-04-25 09:48:00,
2013-04-25 04:53:00,39.6,34.6,30.25,South,185,0.0,1.0,82,0.00,,CLR,0.00,VWS V14.01,2013-04-25 09:53:00,
2013-04-25 04:58:00,39.5,34.5,30.25,South,185,0.0,1.0,82,0.00,,CLR,0.00,VWS V14.01,2013-04-25 09:58:00,
2013-04-25 05:03:00,39.3,34.3,30.25,South,185,0.0,1.0,82,0.00,,CLR,0.00,VWS V14.01,2013-04-25 10:03:00,
2013-04-25 05:08:00,39.2,34.2,30.25,South,185,0.0,1.0,82,0.00,,CLR,0.00,VWS V14.01,2013-04-25 10:08:00,
2013-04-25 05:13:00,39.0,34.0,30.25,South,185,0.0,0.0,82,0.00,,RA,0.00,VWS V14.01,2013-04-25 10:13:00,
2013-04-25 05:18:00,38.9,33.9,30.25,South,185,0.0,0.0,82,0.00,,RA,0.00,VWS V14.01,2013-04-25 10:18:00,
2013-04-25 05:23:00,38.9,34.2,30.26,South,185,0.0,0.0,83,0.00,,CLR,0.00,VWS V14.01,2013-04-25 10:23:00,
2013-04-25 05:28:00,38.9,34.2,30.26,South,185,1.0,1.0,83,0.00,,CLR,0.00,VWS V14.01,2013-04-25 10:28:00,
2013-04-25 05:33:00,38.9,34.2,30.26,South,185,0.0,1.0,83,0.00,,CLR,0.00,VWS V14.01,2013-04-25 10:33:00,
2013-04-25 05:39:00,38.9,33.9,30.26,South,185,0.0,3.0,82,0.00,,CLR,0.00,VWS V14.01,2013-04-25 10:39:00,
2013-04-25 05:44:00,38.9,33.9,30.26,South,185,0.0,0.0,82,0.00,,CLR,0.00,VWS V14.01,2013-04-25 10:44:00,
2013-04-25 05:49:00,39.0,34.0,30.26,SW,219,0.0,2.0,82,0.00,,CLR,0.00,VWS V14.01,2013-04-25 10:49:00,
2013-04-25 05:54:00,39.0,34.0,30.26,SW,219,0.0,1.0,82,0.00,,CLR,0.00,VWS V14.01,2013-04-25 10:54:00,
2013-04-25 05:59:00,39.1,34.1,30.26,SW,219,0.0,1.0,82,0.00,,CLR,0.00,VWS V14.01,2013-04-25 10:59:00,
2013-04-25 06:04:00,39.2,34.2,30.26,SW,218,1.0,2.0,82,0.00,,CLR,0.00,VWS V14.01,2013-04-25 11:04:00,
2013-04-25 06:09:00,39.2,34.2,30.26,SSW,209,0.0,4.0,82,0.00,,CLR,0.00,VWS V14.01,2013-04-25 11:09:00,
2013-04-25 06:14:00,39.2,34.2,30.26,SSW,209,0.0,3.0,82,0.00,,CLR,0.00,VWS V14.01,2013-04-25 11:14:00,
2013-04-25 06:19:00,39.3,34.3,30.26,SSW,209,0.0,3.0,82,0.00,,CLR,0.00,VWS V14.01,2013-04-25 11:19:00,
2013-04-25 06:24:00,39.3,34.0,30.26,SSW,209,0.0,1.0,81,0.00,,CLR,0.00,VWS V14.01,2013-04-25 11:24:00,
2013-04-25 06:29:00,39.3,34.0,30.26,SW,232,0.0,4.0,81,0.00,,CLR,0.00,VWS V14.01,2013-04-25 11:29:00,
2013-04-25 06:34:00,39.6,34.3,30.26,SW,232,0.0,2.0,81,0.00,,CLR,0.00,VWS V14.01,2013-04-25 11:34:00,
2013-04-25 06:39:00,39.9,34.2,30.27,WSW,240,0.0,5.0,80,0.00,,CLR,0.00,VWS V14.01,2013-04-25 11:39:00,
2013-04-25 06:44:00,40.4,34.4,30.26,WSW,240,0.0,6.0,79,0.00,,CLR,0.00,VWS V14.01,2013-04-25 11:44:00,
2013-04-25 06:49:00,40.9,34.6,30.27,SW,227,0.0,6.0,78,0.00,,CLR,0.00,VWS V14.01,2013-04-25 11:49:00,
2013-04-25 06:54:00,41.1,34.8,30.26,SW,234,0.0,5.0,78,0.00,,CLR,0.00,VWS V14.01,2013-04-25 11:54:00,
2013-04-25 06:59:00,41.3,34.7,30.27,SW,223,0.0,5.0,77,0.00,,CLR,0.00,VWS V14.01,2013-04-25 11:59:00,
2013-04-25 07:04:00,41.5,34.8,30.27,WSW,243,3.0,4.0,77,0.00,,CLR,0.00,VWS V14.01,2013-04-25 12:04:00,
2013-04-25 07:09:00,41.7,35.0,30.27,SW,232,2.0,6.0,77,0.00,,CLR,0.00,VWS V14.01,2013-04-25 12:09:00,
2013-04-25 07:14:00,41.9,35.2,30.27,WSW,241,3.0,5.0,77,0.00,,CLR,0.00,VWS V14.01,2013-04-25 12:14:00,
2013-04-25 07:19:00,42.2,35.2,30.27,SW,236,4.0,6.0,76,0.00,,CLR,0.00,VWS V14.01,2013-04-25 12:19:00,
2013-04-25 07:24:00,42.6,35.2,30.28,WSW,246,7.0,9.0,75,0.00,,CLR,0.00,VWS V14.01,2013-04-25 12:24:00,
2013-04-25 07:29:00,42.9,35.2,30.28,WSW,246,1.0,9.0,74,0.00,,CLR,0.00,VWS V14.01,2013-04-25 12:29:00,
2013-04-25 07:34:00,43.3,35.6,30.28,SW,234,2.0,4.0,74,0.00,,CLR,0.00,VWS V14.01,2013-04-25 12:34:00,
2013-04-25 07:39:00,43.6,35.2,30.28,WSW,238,1.0,9.0,72,0.00,,CLR,0.00,VWS V14.01,2013-04-25 12:39:00,
2013-04-25 07:44:00,44.0,35.6,30.28,WSW,246,8.0,8.0,72,0.00,,CLR,0.00,VWS V14.01,2013-04-25 12:44:00,
2013-04-25 07:49:00,44.4,35.6,30.28,WSW,247,2.0,9.0,71,0.00,,CLR,0.00,VWS V14.01,2013-04-25 12:49:00,
2013-04-25 07:54:00,44.7,35.5,30.28,WSW,240,1.0,5.0,70,0.00,,CLR,0.00,VWS V14.01,2013-04-25 12:54:00,
2013-04-25 07:59:00,45.1,35.9,30.29,WSW,251,2.0,6.0,70,0.00,,CLR,0.00,VWS V14.01,2013-04-25 12:59:00,
2013-04-25 08:04:00,45.5,35.9,30.29,West,264,7.0,8.0,69,0.00,,CLR,0.00,VWS V14.01,2013-04-25 13:04:00,
2013-04-25 08:09:00,45.8,35.8,30.30,WSW,248,4.0,8.0,68,0.00,,CLR,0.00,VWS V14.01,2013-04-25 13:09:00,
2013-04-25 08:14:00,46.0,36.0,30.29,WSW,252,1.0,7.0,68,0.00,,CLR,0.00,VWS V14.01,2013-04-25 13:14:00,
2013-04-25 08:19:00,46.3,36.0,30.30,WSW,251,8.0,9.0,67,0.00,,CLR,0.00,VWS V14.01,2013-04-25 13:19:00,
2013-04-25 08:24:00,46.5,36.5,30.30,WNW,301,2.0,5.0,68,0.00,,CLR,0.00,VWS V14.01,2013-04-25 13:24:00,
2013-04-25 08:29:00,46.7,36.3,30.30,WSW,247,7.0,9.0,67,0.00,,CLR,0.00,VWS V14.01,2013-04-25 13:29:00,
2013-04-25 08:34:00,46.9,36.9,30.30,West,269,0.0,7.0,68,0.00,,CLR,0.00,VWS V14.01,2013-04-25 13:34:00,
2013-04-25 08:39:00,47.2,36.4,30.30,West,281,2.0,10.0,66,0.00,,CLR,0.00,VWS V14.01,2013-04-25 13:39:00,
2013-04-25 08:44:00,47.6,37.2,30.31,WSW,244,3.0,9.0,67,0.00,,CLR,0.00,VWS V14.01,2013-04-25 13:44:00,
2013-04-25 08:49:00,48.1,37.7,30.31,WNW,303,2.0,9.0,67,0.00,,CLR,0.00,VWS V14.01,2013-04-25 13:49:00,
2013-04-25 08:54:00,48.4,38.0,30.31,WSW,238,0.0,5.0,67,0.00,,CLR,0.00,VWS V14.01,2013-04-25 13:54:00,
2013-04-25 08:59:00,48.9,37.3,30.31,West,261,1.0,9.0,64,0.00,,CLR,0.00,VWS V14.01,2013-04-25 13:59:00,
2013-04-25 09:04:00,49.3,37.7,30.31,West,265,4.0,8.0,64,0.00,,CLR,0.00,VWS V14.01,2013-04-25 14:04:00,
2013-04-25 09:09:00,49.6,37.5,30.32,NW,323,0.0,9.0,63,0.00,,CLR,0.00,VWS V14.01,2013-04-25 14:09:00,
2013-04-25 09:14:00,49.7,37.6,30.32,West,263,1.0,6.0,63,0.00,,CLR,0.00,VWS V14.01,2013-04-25 14:14:00,
2013-04-25 09:19:00,49.9,37.8,30.32,NNW,329,2.0,8.0,63,0.00,,CLR,0.00,VWS V14.01,2013-04-25 14:19:00,
2013-04-25 09:24:00,50.0,37.9,30.32,NW,312,0.0,7.0,63,0.00,,CLR,0.00,VWS V14.01,2013-04-25 14:24:00,
2013-04-25 09:29:00,50.3,38.2,30.33,NW,315,4.0,7.0,63,0.00,,CLR,0.00,VWS V14.01,2013-04-25 14:29:00,
2013-04-25 09:34:00,50.4,38.7,30.33,WNW,293,0.0,7.0,64,0.00,,CLR,0.00,VWS V14.01,2013-04-25 14:34:00,
2013-04-25 09:39:00,50.4,38.7,30.33,West,281,0.0,7.0,64,0.00,,CLR,0.00,VWS V14.01,2013-04-25 14:39:00,
2013-04-25 09:44:00,50.6,39.3,30.33,West,267,0.0,4.0,65,0.00,,CLR,0.00,VWS V14.01,2013-04-25 14:44:00,
2013-04-25 09:49:00,50.9,40.0,30.33,NW,324,0.0,4.0,66,0.00,,CLR,0.00,VWS V14.01,2013-04-25 14:49:00,
2013-04-25 09:54:00,51.4,40.4,30.33,NNW,328,0.0,4.0,66,0.00,,CLR,0.00,VWS V14.01,2013-04-25 14:54:00,
2013-04-25 09:59:00,51.5,39.7,30.33,West,279,0.0,7.0,64,0.00,,CLR,0.00,VWS V14.01,2013-04-25 14:59:00,
2013-04-25 10:04:00,51.7,39.5,30.34,West,263,0.0,6.0,63,0.00,,CLR,0.00,VWS V14.01,2013-04-25 15:04:00,
2013-04-25 10:09:00,52.0,39.8,30.34,NW,305,4.0,6.0,63,0.00,,CLR,0.00,VWS V14.01,2013-04-25 15:09:00,
2013-04-25 10:14:00,52.3,39.7,30.34,WNW,290,1.0,4.0,62,0.00,,CLR,0.00,VWS V14.01,2013-04-25 15:14:00,
2013-04-25 10:19:00,52.4,38.9,30.34,NW,309,1.0,4.0,60,0.00,,CLR,0.00,VWS V14.01,2013-04-25 15:19:00,
2013-04-25 10:24:00,52.2,38.8,30.34,WNW,286,0.0,5.0,60,0.00,,CLR,0.00,VWS V14.01,2013-04-25 15:24:00,
2013-04-25 10:29:00,52.4,39.4,30.34,NW,326,3.0,8.0,61,0.00,,CLR,0.00,VWS V14.01,2013-04-25 15:29:00,
2013-04-25 10:34:00,53.3,40.6,30.34,West,263,3.0,3.0,62,0.00,,CLR,0.00,VWS V14.01,2013-04-25 15:34:00,
2013-04-25 10:39:00,53.0,39.1,30.34,West,281,3.0,6.0,59,0.00,,CLR,0.00,VWS V14.01,2013-04-25 15:39:00,
2013-04-25 10:44:00,52.9,39.8,30.35,WSW,250,2.0,9.0,61,0.00,,CLR,0.00,VWS V14.01,2013-04-25 15:44:00,
2013-04-25 10:49:00,52.7,39.2,30.35,NNW,336,0.0,9.0,60,0.00,,CLR,0.00,VWS V14.01,2013-04-25 15:49:00,
2013-04-25 10:54:00,52.7,39.6,30.34,West,267,1.0,4.0,61,0.00,,CLR,0.00,VWS V14.01,2013-04-25 15:54:00,
2013-04-25 10:59:00,53.1,38.7,30.35,NW,320,6.0,10.0,58,0.00,,CLR,0.00,VWS V14.01,2013-04-25 15:59:00,
2013-04-25 11:04:00,53.5,39.1,30.35,NNW,346,1.0,4.0,58,0.00,,CLR,0.00,VWS V14.01,2013-04-25 16:04:00,
2013-04-25 11:09:00,53.8,38.0,30.35,NNW,342,0.0,4.0,55,0.00,,CLR,0.00,VWS V14.01,2013-04-25 16:09:00,
2013-04-25 11:14:00,55.0,41.0,30.35,SW,222,4.0,7.0,59,0.00,,CLR,0.00,VWS V14.01,2013-04-25 16:14:00,
2013-04-25 11:19:00,53.8,38.0,30.35,WSW,238,5.0,10.0,55,0.00,,CLR,0.00,VWS V14.01,2013-04-25 16:19:00,
2013-04-25 11:24:00,53.7,39.3,30.35,West,271,6.0,6.0,58,0.00,,CLR,0.00,VWS V14.01,2013-04-25 16:24:00,
2013-04-25 11:29:00,53.9,37.2,30.35,NE,34,1.0,11.0,53,0.00,,CLR,0.00,VWS V14.01,2013-04-25 16:29:00,
2013-04-25 11:34:00,54.7,38.4,30.35,NW,324,2.0,6.0,54,0.00,,CLR,0.00,VWS V14.01,2013-04-25 16:34:00,
2013-04-25 11:39:00,55.1,38.3,30.35,NW,323,0.0,6.0,53,0.00,,CLR,0.00,VWS V14.01,2013-04-25 16:39:00,
2013-04-25 11:44:00,54.8,38.0,30.35,WNW,295,2.0,6.0,53,0.00,,CLR,0.00,VWS V14.01,2013-04-25 16:44:00,
2013-04-25 11:49:00,54.4,38.1,30.35,North,360,2.0,7.0,54,0.00,,CLR,0.00,VWS V14.01,2013-04-25 16:49:00,
2013-04-25 11:54:00,55.3,39.0,30.35,NW,311,5.0,6.0,54,0.00,,CLR,0.00,VWS V14.01,2013-04-25 16:54:00,
2013-04-25 11:59:00,54.3,38.5,30.35,WNW,286,1.0,11.0,55,0.00,,CLR,0.00,VWS V14.01,2013-04-25 16:59:00,
2013-04-25 12:04:00,55.3,40.3,30.35,NW,315,3.0,6.0,57,0.00,,CLR,0.00,VWS V14.01,2013-04-25 17:04:00,
2013-04-25 12:09:00,55.5,39.1,30.35,SW,229,6.0,6.0,54,0.00,,CLR,0.00,VWS V14.01,2013-04-25 17:09:00,
2013-04-25 12:14:00,55.2,37.9,30.35,WNW,298,0.0,7.0,52,0.00,,CLR,0.00,VWS V14.01,2013-04-25 17:14:00,
2013-04-25 12:19:00,56.0,39.6,30.35,North,351,3.0,7.0,54,0.00,,CLR,0.00,VWS V14.01,2013-04-25 17:19:00,
2013-04-25 12:24:00,56.7,39.3,30.35,North,355,0.0,3.0,52,0.00,,CLR,0.00,VWS V14.01,2013-04-25 17:24:00,
2013-04-25 12:29:00,56.2,39.3,30.34,WNW,295,1.0,3.0,53,0.00,,CLR,0.00,VWS V14.01,2013-04-25 17:29:00,
2013-04-25 12:34:00,55.9,37.5,30.35,NNW,338,1.0,7.0,50,0.00,,CLR,0.00,VWS V14.01,2013-04-25 17:34:00,
2013-04-25 12:39:00,55.3,36.0,30.35,NW,311,2.0,7.0,48,0.00,,CLR,0.00,VWS V14.01,2013-04-25 17:39:00,
2013-04-25 12:44:00,55.8,38.9,30.34,WNW,294,0.0,5.0,53,0.00,,CLR,0.00,VWS V14.01,2013-04-25 17:44:00,
2013-04-25 12:49:00,56.9,40.4,30.34,South,177,0.0,5.0,54,0.00,,CLR,0.00,VWS V14.01,2013-04-25 17:49:00,
2013-04-25 12:54:00,57.3,38.8,30.34,NW,304,3.0,6.0,50,0.00,,CLR,0.00,VWS V14.01,2013-04-25 17:54:00,
2013-04-25 12:59:00,57.2,39.2,30.34,NW,308,2.0,6.0,51,0.00,,CLR,0.00,VWS V14.01,2013-04-25 17:59:00,
2013-04-25 13:04:00,56.7,37.2,30.34,NNW,335,3.0,6.0,48,0.00,,CLR,0.00,VWS V14.01,2013-04-25 18:04:00,
2013-04-25 13:09:00,56.9,40.4,30.34,North,351,6.0,7.0,54,0.00,,CLR,0.00,VWS V14.01,2013-04-25 18:09:00,
2013-04-25 13:14:00,57.1,36.5,30.34,NW,304,3.0,6.0,46,0.00,,CLR,0.00,VWS V14.01,2013-04-25 18:14:00,
2013-04-25 13:19:00,57.3,37.8,30.34,NW,304,2.0,6.0,48,0.00,,CLR,0.00,VWS V14.01,2013-04-25 18:19:00,
2013-04-25 13:24:00,57.0,35.9,30.34,WNW,286,4.0,7.0,45,0.00,,CLR,0.00,VWS V14.01,2013-04-25 18:24:00,
2013-04-25 13:29:00,56.5,35.4,30.34,West,272,4.0,7.0,45,0.00,,CLR,0.00,VWS V14.01,2013-04-25 18:29:00,
2013-04-25 13:34:00,57.0,37.0,30.34,WSW,243,4.0,8.0,47,0.00,,SCT110,0.00,VWS V14.01,2013-04-25 18:34:00,
2013-04-25 13:39:00,57.6,38.1,30.34,NW,313,3.0,8.0,48,0.00,,SCT110,0.00,VWS V14.01,2013-04-25 18:39:00,
2013-04-25 13:44:00,57.3,37.3,30.35,NNW,346,1.0,12.0,47,0.00,,SCT110,0.00,VWS V14.01,2013-04-25 18:44:00,
2013-04-25 13:49:00,56.6,37.7,30.35,NW,317,2.0,12.0,49,0.00,,SCT110,0.00,VWS V14.01,2013-04-25 18:49:00,
2013-04-25 13:54:00,57.5,39.5,30.35,WNW,298,5.0,6.0,51,0.00,,CLR,0.00,VWS V14.01,2013-04-25 18:54:00,
2013-04-25 13:59:00,57.7,35.4,30.35,WNW,298,0.0,8.0,43,0.00,,CLR,0.00,VWS V14.01,2013-04-25 18:59:00,
2013-04-25 14:04:00,57.6,36.4,30.35,WNW,285,3.0,7.0,45,0.00,,CLR,0.00,VWS V14.01,2013-04-25 19:04:00,
2013-04-25 14:09:00,57.3,35.0,30.34,West,264,0.0,8.0,43,0.00,,CLR,0.00,VWS V14.01,2013-04-25 19:09:00,
2013-04-25 14:14:00,58.1,36.3,30.34,WSW,254,5.0,11.0,44,0.00,,CLR,0.00,VWS V14.01,2013-04-25 19:14:00,
2013-04-25 14:19:00,57.6,36.4,30.34,WSW,240,10.0,11.0,45,0.00,,CLR,0.00,VWS V14.01,2013-04-25 19:19:00,
2013-04-25 14:24:00,57.6,37.0,30.34,WNW,294,1.0,13.0,46,0.00,,CLR,0.00,VWS V14.01,2013-04-25 19:24:00,
2013-04-25 14:29:00,57.7,36.5,30.34,WSW,256,4.0,13.0,45,0.00,,CLR,0.00,VWS V14.01,2013-04-25 19:29:00,
2013-04-25 14:34:00,57.1,36.5,30.34,WSW,248,10.0,11.0,46,0.00,,CLR,0.00,VWS V14.01,2013-04-25 19:34:00,
2013-04-25 14:39:00,57.4,37.3,30.34,West,270,1.0,11.0,47,0.00,,CLR,0.00,VWS V14.01,2013-04-25 19:39:00,
2013-04-25 14:44:00,58.4,38.3,30.34,West,278,3.0,5.0,47,0.00,,CLR,0.00,VWS V14.01,2013-04-25 19:44:00,
2013-04-25 14:49:00,59.2,39.0,30.33,North,355,3.0,5.0,47,0.00,,CLR,0.00,VWS V14.01,2013-04-25 19:49:00,
2013-04-25 14:54:00,59.9,36.8,30.34,WSW,248,3.0,5.0,42,0.00,,CLR,0.00,VWS V14.01,2013-04-25 19:54:00,
2013-04-25 14:59:00,58.1,36.9,30.34,NE,53,1.0,8.0,45,0.00,,CLR,0.00,VWS V14.01,2013-04-25 19:59:00,
2013-04-25 15:05:00,59.7,38.9,30.34,SSW,193,0.0,4.0,46,0.00,,CLR,0.00,VWS V14.01,2013-04-25 20:05:00,
2013-04-25 15:10:00,59.1,36.0,30.33,NW,304,5.0,7.0,42,0.00,,CLR,0.00,VWS V14.01,2013-04-25 20:10:00,
2013-04-25 15:15:00,58.4,37.2,30.33,West,266,4.0,7.0,45,0.00,,CLR,0.00,VWS V14.01,2013-04-25 20:15:00,
2013-04-25 15:20:00,58.0,36.8,30.33,SW,234,0.0,8.0,45,0.00,,CLR,0.00,VWS V14.01,2013-04-25 20:20:00,
2013-04-25 15:25:00,58.1,35.7,30.33,SW,231,4.0,7.0,43,0.00,,CLR,0.00,VWS V14.01,2013-04-25 20:25:00,
2013-04-25 15:30:00,57.7,37.1,30.33,WSW,254,1.0,7.0,46,0.00,,CLR,0.00,VWS V14.01,2013-04-25 20:30:00,
2013-04-25 15:35:00,58.0,36.8,30.33,WSW,254,3.0,6.0,45,0.00,,CLR,0.00,VWS V14.01,2013-04-25 20:35:00,
2013-04-25 15:40:00,58.3,35.3,30.33,NW,305,2.0,6.0,42,0.00,,CLR,0.00,VWS V14.01,2013-04-25 20:40:00,
2013-04-25 15:45:00,59.0,37.1,30.32,WSW,244,7.0,8.0,44,0.00,,CLR,0.00,VWS V14.01,2013-04-25 20:45:00,
2013-04-25 15:50:00,59.3,36.8,30.32,SW,233,2.0,8.0,43,0.00,,CLR,0.00,VWS V14.01,2013-04-25 20:50:00,
2013-04-25 15:55:00,59.4,34.5,30.32,WSW,252,1.0,7.0,39,0.00,,CLR,0.00,VWS V14.01,2013-04-25 20:55:00,
2013-04-25 16:00:00,59.7,36.0,30.32,North,355,3.0,7.0,41,0.00,,CLR,0.00,VWS V14.01,2013-04-25 21:00:00,
2013-04-25 16:05:00,60.1,36.3,30.32,WNW,295,1.0,3.0,41,0.00,,CLR,0.00,VWS V14.01,2013-04-25 21:05:00,
2013-04-25 16:10:00,60.5,35.4,30.32,West,269,0.0,3.0,39,0.00,,CLR,0.00,VWS V14.01,2013-04-25 21:10:00,
2013-04-25 16:15:00,60.0,36.9,30.32,WNW,300,2.0,7.0,42,0.00,,CLR,0.00,VWS V14.01,2013-04-25 21:15:00,
2013-04-25 16:20:00,60.2,38.8,30.32,NNW,328,2.0,7.0,45,0.00,,CLR,0.00,VWS V14.01,2013-04-25 21:20:00,
2013-04-25 16:25:00,60.2,38.2,30.32,NNW,348,0.0,9.0,44,0.00,,CLR,0.00,VWS V14.01,2013-04-25 21:25:00,
2013-04-25 16:30:00,59.9,35.5,30.32,West,261,6.0,9.0,40,0.00,,CLR,0.00,VWS V14.01,2013-04-25 21:30:00,
2013-04-25 16:35:00,59.0,35.3,30.32,WNW,296,3.0,7.0,41,0.00,,CLR,0.00,VWS V14.01,2013-04-25 21:35:00,
2013-04-25 16:40:00,59.6,36.5,30.32,North,360,4.0,7.0,42,0.00,,CLR,0.00,VWS V14.01,2013-04-25 21:40:00,
2013-04-25 16:45:00,60.4,39.0,30.32,North,5,0.0,2.0,45,0.00,,CLR,0.00,VWS V14.01,2013-04-25 21:45:00,
2013-04-25 16:50:00,60.5,36.7,30.31,NNE,17,0.0,4.0,41,0.00,,CLR,0.00,VWS V14.01,2013-04-25 21:50:00,
2013-04-25 16:55:00,60.8,37.0,30.31,North,355,1.0,4.0,41,0.00,,CLR,0.00,VWS V14.01,2013-04-25 21:55:00,
2013-04-25 17:00:00,60.0,37.5,30.31,NE,55,0.0,4.0,43,0.00,,CLR,0.00,VWS V14.01,2013-04-25 22:00:00,
2013-04-25 17:05:00,60.3,38.9,30.31,West,281,2.0,4.0,45,0.00,,CLR,0.00,VWS V14.01,2013-04-25 22:05:00,
2013-04-25 17:10:00,60.3,35.9,30.31,ENE,62,1.0,5.0,40,0.00,,CLR,0.00,VWS V14.01,2013-04-25 22:10:00,
2013-04-25 17:15:00,59.7,37.2,30.31,NE,56,0.0,4.0,43,0.00,,CLR,0.00,VWS V14.01,2013-04-25 22:15:00,
2013-04-25 17:20:00,60.6,36.8,30.31,NE,55,0.0,4.0,41,0.00,,CLR,0.00,VWS V14.01,2013-04-25 22:20:00,
2013-04-25 17:25:00,60.6,36.8,30.31,WNW,292,3.0,3.0,41,0.00,,CLR,0.00,VWS V14.01,2013-04-25 22:25:00,
2013-04-25 17:30:00,60.3,35.9,30.31,NNW,342,0.0,3.0,40,0.00,,CLR,0.00,VWS V14.01,2013-04-25 22:30:00,
2013-04-25 17:35:00,60.3,35.9,30.31,West,260,3.0,6.0,40,0.00,,CLR,0.00,VWS V14.01,2013-04-25 22:35:00,
2013-04-25 17:40:00,60.2,38.2,30.31,NW,325,1.0,6.0,44,0.00,,CLR,0.00,VWS V14.01,2013-04-25 22:40:00,
2013-04-25 17:45:00,60.2,35.8,30.31,West,264,0.0,0.0,40,0.00,,CLR,0.00,VWS V14.01,2013-04-25 22:45:00,
2013-04-25 17:50:00,60.1,35.7,30.31,WSW,244,0.0,5.0,40,0.00,,CLR,0.00,VWS V14.01,2013-04-25 22:50:00,
2013-04-25 17:55:00,60.0,35.6,30.31,WSW,244,0.0,2.0,40,0.00,,CLR,0.00,VWS V14.01,2013-04-25 22:55:00,
2013-04-25 18:00:00,60.0,35.6,30.31,NW,305,0.0,3.0,40,0.00,,CLR,0.00,VWS V14.01,2013-04-25 23:00:00,
2013-04-25 18:05:00,59.8,36.1,30.31,North,351,0.0,1.0,41,0.00,,CLR,0.00,VWS V14.01,2013-04-25 23:05:00,
2013-04-25 18:10:00,59.7,35.4,30.31,North,351,0.0,1.0,40,0.00,,CLR,0.00,VWS V14.01,2013-04-25 23:10:00,
2013-04-25 18:15:00,59.5,35.8,30.31,NNE,24,0.0,1.0,41,0.00,,CLR,0.00,VWS V14.01,2013-04-25 23:15:00,
2013-04-25 18:20:00,59.6,36.5,30.31,NW,319,0.0,1.0,42,0.00,,CLR,0.00,VWS V14.01,2013-04-25 23:20:00,
2013-04-25 18:25:00,59.7,37.2,30.31,NW,319,0.0,1.0,43,0.00,,CLR,0.00,VWS V14.01,2013-04-25 23:25:00,
2013-04-25 18:30:00,59.5,36.4,30.31,NW,323,0.0,1.0,42,0.00,,CLR,0.00,VWS V14.01,2013-04-25 23:30:00,
2013-04-25 18:35:00,59.2,35.5,30.31,NW,323,0.0,1.0,41,0.00,,CLR,0.00,VWS V14.01,2013-04-25 23:35:00,
2013-04-25 18:40:00,58.9,35.9,30.31,NNW,330,0.0,2.0,42,0.00,,CLR,0.00,VWS V14.01,2013-04-25 23:40:00,
2013-04-25 18:45:00,58.8,36.4,30.31,NNW,330,0.0,1.0,43,0.00,,CLR,0.00,VWS V14.01,2013-04-25 23:45:00,
2013-04-25 18:50:00,58.7,35.7,30.31,NNW,330,0.0,1.0,42,0.00,,CLR,0.00,VWS V14.01,2013-04-25 23:50:00,
2013-04-25 18:55:00,58.7,36.3,30.31,NNW,330,1.0,1.0,43,0.00,,CLR,0.00,VWS V14.01,2013-04-25 23:55:00,
2013-04-25 19:00:00,58.6,36.2,30.31,NNW,330,0.0,1.0,43,0.00,,CLR,0.00,VWS V14.01,2013-04-26 00:00:00,
2013-04-25 19:05:00,58.5,36.1,30.31,NNW,330,0.0,0.0,43,0.00,,CLR,0.00,VWS V14.01,2013-04-26 00:05:00,
2013-04-25 19:10:00,58.3,35.9,30.31,NNW,330,0.0,0.0,43,0.00,,CLR,0.00,VWS V14.01,2013-04-26 00:10:00,
2013-04-25 19:15:00,58.1,36.3,30.31,NNW,330,0.0,0.0,44,0.00,,CLR,0.00,VWS V14.01,2013-04-26 00:15:00,
2013-04-25 19:20:00,57.9,36.1,30.30,NNW,331,0.0,1.0,44,0.00,,CLR,0.00,VWS V14.01,2013-04-26 00:20:00,
2013-04-25 19:25:00,57.7,37.1,30.31,NNW,331,0.0,0.0,46,0.00,,CLR,0.00,VWS V14.01,2013-04-26 00:25:00,
2013-04-25 19:30:00,57.5,38.0,30.30,NNW,331,0.0,0.0,48,0.00,,CLR,0.00,VWS V14.01,2013-04-26 00:30:00,
2013-04-25 19:35:00,57.1,37.6,30.30,NNW,331,0.0,0.0,48,0.00,,CLR,0.00,VWS V14.01,2013-04-26 00:35:00,
2013-04-25 19:40:00,56.7,38.3,30.30,NNW,331,0.0,0.0,50,0.00,,CLR,0.00,VWS V14.01,2013-04-26 00:40:00,
2013-04-25 19:45:00,56.3,37.9,30.30,NNW,331,0.0,0.0,50,0.00,,CLR,0.00,VWS V14.01,2013-04-26 00:45:00,
2013-04-25 19:50:00,55.9,37.5,30.30,NNW,331,0.0,0.0,50,0.00,,CLR,0.00,VWS V14.01,2013-04-26 00:50:00,
2013-04-25 19:55:00,55.5,37.7,30.30,NNW,331,0.0,0.0,51,0.00,,CLR,0.00,VWS V14.01,2013-04-26 00:55:00,
2013-04-25 20:00:00,54.9,37.6,30.31,NNW,331,0.0,0.0,52,0.00,,CLR,0.00,VWS V14.01,2013-04-26 01:00:00,
2013-04-25 20:05:00,54.5,38.2,30.30,NNW,331,0.0,0.0,54,0.00,,CLR,0.00,VWS V14.01,2013-04-26 01:05:00,
2013-04-25 20:10:00,53.9,38.1,30.31,NNW,331,0.0,0.0,55,0.00,,CLR,0.00,VWS V14.01,2013-04-26 01:10:00,
2013-04-25 20:15:00,53.5,38.2,30.31,NNW,331,0.0,0.0,56,0.00,,CLR,0.00,VWS V14.01,2013-04-26 01:15:00,
2013-04-25 20:20:00,53.2,37.9,30.31,NNW,331,0.0,0.0,56,0.00,,CLR,0.00,VWS V14.01,2013-04-26 01:20:00,
2013-04-25 20:25:00,52.9,38.1,30.31,NNW,331,0.0,0.0,57,0.00,,CLR,0.00,VWS V14.01,2013-04-26 01:25:00,
2013-04-25 20:30:00,52.7,38.3,30.31,NNW,331,0.0,0.0,58,0.00,,CLR,0.00,VWS V14.01,2013-04-26 01:30:00,
2013-04-25 20:35:00,52.5,37.7,30.31,NNW,337,0.0,0.0,57,0.00,,CLR,0.00,VWS V14.01,2013-04-26 01:35:00,
2013-04-25 20:40:00,52.3,38.0,30.31,NNW,337,0.0,1.0,58,0.00,,CLR,0.00,VWS V14.01,2013-04-26 01:40:00,
2013-04-25 20:45:00,52.0,39.0,30.31,NNW,337,0.0,0.0,61,0.00,,CLR,0.00,VWS V14.01,2013-04-26 01:45:00,
2013-04-25 20:50:00,51.7,38.3,30.32,NNW,338,0.0,0.0,60,0.00,,CLR,0.00,VWS V14.01,2013-04-26 01:50:00,
2013-04-25 20:55:00,51.5,37.7,30.32,NNE,24,0.0,1.0,59,0.00,,CLR,0.00,VWS V14.01,2013-04-26 01:55:00,
2013-04-25 21:00:00,51.5,38.9,30.32,NNE,24,0.0,1.0,62,0.00,,CLR,0.00,VWS V14.01,2013-04-26 02:00:00,
2013-04-25 21:05:00,51.3,39.2,30.32,NNE,24,0.0,0.0,63,0.00,,CLR,0.00,VWS V14.01,2013-04-26 02:05:00,
2013-04-25 21:10:00,51.1,38.5,30.32,NNE,24,0.0,1.0,62,0.00,,CLR,0.00,VWS V14.01,2013-04-26 02:10:00,
2013-04-25 21:15:00,50.8,38.7,30.32,NNE,24,0.0,0.0,63,0.00,,CLR,0.00,VWS V14.01,2013-04-26 02:15:00,
2013-04-25 21:20:00,50.5,39.2,30.32,NNE,24,0.0,0.0,65,0.00,,CLR,0.00,VWS V14.01,2013-04-26 02:20:00,
2013-04-25 21:25:00,50.1,38.4,30.32,NNE,24,0.0,0.0,64,0.00,,CLR,0.00,VWS V14.01,2013-04-26 02:25:00,
2013-04-25 21:30:00,50.0,37.9,30.32,NNE,24,0.0,0.0,63,0.00,,CLR,0.00,VWS V14.01,2013-04-26 02:30:00,
2013-04-25 21:35:00,49.9,38.2,30.33,NNE,24,0.0,0.0,64,0.00,,CLR,0.00,VWS V14.01,2013-04-26 02:35:00,
2013-04-25 21:40:00,49.7,38.4,30.33,NNE,24,0.0,0.0,65,0.00,,CLR,0.00,VWS V14.01,2013-04-26 02:40:00,
2013-04-25 21:45:00,49.5,37.8,30.33,NNE,24,0.0,0.0,64,0.00,,CLR,0.00,VWS V14.01,2013-04-26 02:45:00,
2013-04-25 21:50:00,49.4,38.1,30.33,NNE,24,0.0,0.0,65,0.00,,CLR,0.00,VWS V14.01,2013-04-26 02:50:00,
2013-04-25 21:55:00,49.3,38.4,30.33,NNE,24,0.0,0.0,66,0.00,,CLR,0.00,VWS V14.01,2013-04-26 02:55:00,
2013-04-25 22:00:00,49.1,38.2,30.33,NNE,24,0.0,0.0,66,0.00,,CLR,0.00,VWS V14.01,2013-04-26 03:00:00,
2013-04-25 22:05:00,49.0,38.5,30.33,NNE,24,0.0,0.0,67,0.00,,CLR,0.00,VWS V14.01,2013-04-26 03:05:00,
2013-04-25 22:10:00,48.8,38.3,30.33,NNE,24,0.0,0.0,67,0.00,,CLR,0.00,VWS V14.01,2013-04-26 03:10:00,
2013-04-25 22:15:00,48.6,38.5,30.33,NNE,24,0.0,0.0,68,0.00,,CLR,0.00,VWS V14.01,2013-04-26 03:15:00,
2013-04-25 22:20:00,48.5,38.8,30.33,NNE,24,0.0,0.0,69,0.00,,CLR,0.00,VWS V14.01,2013-04-26 03:20:00,
2013-04-25 22:25:00,48.3,38.6,30.33,NNE,24,0.0,0.0,69,0.00,,CLR,0.00,VWS V14.01,2013-04-26 03:25:00,
2013-04-25 22:30:00,48.2,38.5,30.33,NNE,24,0.0,0.0,69,0.00,,CLR,0.00,VWS V14.01,2013-04-26 03:30:00,
2013-04-25 22:36:00,48.2,38.5,30.33,NNE,24,0.0,0.0,69,0.00,,CLR,0.00,VWS V14.01,2013-04-26 03:36:00,
2013-04-25 22:41:00,48.1,38.8,30.33,NNE,24,0.0,0.0,70,0.00,,CLR,0.00,VWS V14.01,2013-04-26 03:41:00,
2013-04-25 22:46:00,48.0,39.1,30.33,NNE,24,0.0,0.0,71,0.00,,CLR,0.00,VWS V14.01,2013-04-26 03:46:00,
2013-04-25 22:51:00,47.9,39.0,30.33,NNE,24,0.0,0.0,71,0.00,,CLR,0.00,VWS V14.01,2013-04-26 03:51:00,
2013-04-25 22:56:00,47.7,38.8,30.33,NNE,24,0.0,0.0,71,0.00,,CLR,0.00,VWS V14.01,2013-04-26 03:56:00,
2013-04-25 23:01:00,47.6,39.0,30.33,NNE,24,0.0,0.0,72,0.00,,CLR,0.00,VWS V14.01,2013-04-26 04:01:00,
2013-04-25 23:11:00,47.3,38.7,30.33,NNE,24,0.0,0.0,72,0.00,,CLR,0.00,VWS V14.01,2013-04-26 04:11:00,
2013-04-25 23:16:00,47.2,38.7,30.33,NNE,24,0.0,0.0,72,0.00,,CLR,0.00,VWS V14.01,2013-04-26 04:16:00,
2013-04-25 23:21:00,47.0,38.5,30.33,NNE,24,0.0,0.0,72,0.00,,CLR,0.00,VWS V14.01,2013-04-26 04:21:00,
2013-04-25 23:26:00,46.9,38.0,30.33,NNE,24,0.0,0.0,71,0.00,,CLR,0.00,VWS V14.01,2013-04-26 04:26:00,
2013-04-25 23:31:00,46.9,38.4,30.33,NNE,24,0.0,0.0,72,0.00,,CLR,0.00,VWS V14.01,2013-04-26 04:31:00,
2013-04-25 23:36:00,46.8,38.3,30.33,NNE,24,0.0,0.0,72,0.00,,CLR,0.00,VWS V14.01,2013-04-26 04:36:00,
2013-04-25 23:41:00,46.7,38.2,30.33,NNE,24,0.0,0.0,72,0.00,,CLR,0.00,VWS V14.01,2013-04-26 04:41:00,
2013-04-25 23:46:00,46.7,38.5,30.33,NNE,24,0.0,0.0,73,0.00,,CLR,0.00,VWS V14.01,2013-04-26 04:46:00,
2013-04-25 23:51:00,46.5,38.3,30.33,NNE,24,0.0,0.0,73,0.00,,CLR,0.00,VWS V14.01,2013-04-26 04:51:00,
2013-04-25 23:56:00,46.5,38.3,30.33,NE,37,0.0,1.0,73,0.00,,CLR,0.00,VWS V14.01,2013-04-26 04:56:00,